This is the latest recevied weather packets stored in our database for station/object AA7VG. If no packets are shown the sender has not sent any weather packets the latest 10 day(s).
| Time | Temp. | Humidity | Pressure | Rain* | Wind** | Luminosity | Snow |
|---|---|---|---|---|---|---|---|
| 1777748855 | 22.22° C | 19% | 1016.8 hPa | 0 mm | - | - | - |
| 1777748553 | 21.67° C | 20% | 1017.1 hPa | 0 mm | - | - | - |
| 1777748253 | 21.67° C | 19% | 1017.1 hPa | 0 mm | - | - | - |
| 1777747949 | 21.67° C | 20% | 1017.2 hPa | 0 mm | - | - | - |
| 1777747646 | 21.67° C | 19% | 1017.1 hPa | 0 mm | - | - | - |
| 1777747342 | 21.11° C | 20% | 1017.2 hPa | 0 mm | - | - | - |
| 1777747039 | 21.11° C | 21% | 1017.4 hPa | 0 mm | - | - | - |
| 1777746734 | 20.56° C | 22% | 1017.5 hPa | 0 mm | - | - | - |
| 1777746430 | 21.11° C | 23% | 1017.5 hPa | 0 mm | - | - | - |
| 1777746125 | 20.56° C | 23% | 1017.5 hPa | 0 mm | - | - | - |
| 1777745823 | 20° C | 21% | 1017.6 hPa | 0 mm | - | - | - |
| 1777745522 | 20.56° C | 20% | 1017.7 hPa | 0 mm | - | - | - |
| 1777745219 | 19.44° C | 23% | 1017.7 hPa | 0 mm | - | - | - |
| 1777744916 | 20° C | 22% | 1017.7 hPa | 0 mm | - | - | - |
| 1777744615 | 19.44° C | 24% | 1017.8 hPa | 0 mm | - | - | - |
| 1777744310 | 19.44° C | 24% | 1017.7 hPa | 0 mm | - | - | - |
| 1777744008 | 19.44° C | 24% | 1018 hPa | 0 mm | - | - | - |
| 1777743704 | 19.44° C | 26% | 1018 hPa | 0 mm | - | - | - |
| 1777743402 | 19.44° C | 23% | 1018 hPa | 0 mm | - | - | - |
| 1777743100 | 19.44° C | 25% | 1018.4 hPa | 0 mm | - | - | - |
| 1777742797 | 18.33° C | 26% | 1018.4 hPa | 0 mm | - | - | - |
| 1777742493 | 17.78° C | 29% | 1018.2 hPa | 0 mm | - | - | - |
| 1777742188 | 17.78° C | 29% | 1017.9 hPa | 0 mm | - | - | - |
| 1777741886 | 17.78° C | 29% | 1018.3 hPa | 0 mm | - | - | - |
| 1777741583 | 17.22° C | 33% | 1018.4 hPa | 0 mm | - | - | - |
* Rain latest hour (hover to see other rain measurements)
** Current wind speed in m/s (hover to see current wind gust speed)